Terminal Aerodrome Forecast
Issued by NWS

Home | Current Version | Previous Version | Text Only | Print | Product List | Glossary On
Versions: 1 2 3 4 5 6 7 8 9 10 11 12 13 14 15 16 17 18 19 20 21 22 23 24 25 26 27 28 29 30 31 32 33 34 35 36 37 38 39 40 41 42 43 44 45 46 47 48 49 50
000
FTUS44 KLIX 300000 AAA
TAFASD
TAF AMD
KASD 300058Z 3001/3024 08004KT P6SM SCT003 BKN100
      TEMPO 3001/3004 BKN003
     FM301500 17011KT 6SM -SHRA BKN025 OVC050
      TEMPO 3017/3021 3SM -TSRA BR BKN025CB=

USA.gov is the U.S. government's official web portal to all federal, state and local government web resources and services.